Weather History for PAAQ - September, 2012

Change the Weather History Date:

Saturday, September 22, 2012

  Actual Average Record
Temperature  
Mean Temperature 56 °F -  
Max Temperature 64 °F 53 °F 64 °F (1952)
Min Temperature 48 °F 36 °F 17 °F (1992)
Degree Days  
Heating Degree Days 9    
Growing Degree Days 6 (Base 50)    
Moisture  
Dew Point 46 °F    
Average Humidity 71    
Maximum Humidity 93    
Minimum Humidity 48    
Precipitation  
Precipitation 0.20 in - - ()
Sea Level Pressure  
Sea Level Pressure 29.47 in    
Wind  
Wind Speed 11 mph (ESE)    
Max Wind Speed 31 mph    
Max Gust Speed 45 mph    
Visibility 10 miles    
Events Rain    
Averages and records for this station are not official NWS values.
T = Trace of Precipitation, MM = Missing Value Source: NWS Daily Summary

Daily Weather History Graph

Daily Weather History Graph

Search for Another Location

Airport or City:

Trip Planner

Search our weather history database for the weather conditions in past years. The results will help you decide how hot, cold, wet, or windy it might be!

Date:

Astronomy

Sep. 22, 2012 Rise Set
Actual Time 7:41 AM AKDT 7:54 PM AKDT
Civil Twilight 6:58 AM AKDT 8:37 PM AKDT
Nautical Twilight 6:05 AM AKDT 9:30 PM AKDT
Astronomical Twilight 5:06 AM AKDT 10:28 PM AKDT
Moon 4:56 PM AKDT (9/22) 11:24 PM AKDT (9/22)
Length of Visible Light 13h 39m
Length of Day
12h 12m
Waxing Crescent, 50% of the Moon is Illuminated
Sep 22
Waxing Crescent
Sep 29
Full
Oct 7
Last Quarter
Oct 15
New
Oct 21
First Quarter

Hourly Weather History & Observations

Time (AKDT) Temp. Dew Point Humidity Pressure Visibility Wind Dir Wind Speed Gust Speed Precip Events Conditions
12:53 AM 57.9 °F 48.9 °F 72% 29.56 in 10.0 mi East 9.2 mph - 0.00 in   Mostly Cloudy
1:53 AM 55.0 °F 51.1 °F 86% 29.56 in 10.0 mi Calm Calm - 0.00 in Rain Light Rain
2:53 AM 57.0 °F 50.0 °F 77% 29.53 in 10.0 mi ESE 12.7 mph - N/A   Scattered Clouds
3:53 AM 57.9 °F 51.1 °F 78% 29.51 in 10.0 mi NNE 5.8 mph - 0.00 in Rain Light Rain
4:53 AM 54.0 °F 50.0 °F 86% 29.48 in 9.0 mi North 9.2 mph - 0.02 in Rain Light Rain
5:53 AM 55.0 °F 51.1 °F 86% 29.46 in 7.0 mi Variable 4.6 mph - 0.04 in Rain Light Rain
6:53 AM 52.0 °F 50.0 °F 93% 29.45 in 8.0 mi North 8.1 mph - 0.11 in Rain Light Rain
7:53 AM 59.0 °F 48.9 °F 69% 29.44 in 10.0 mi North 13.8 mph 31.1 mph 0.01 in Rain Light Rain
8:53 AM 63.0 °F 46.9 °F 56% 29.44 in 10.0 mi SE 8.1 mph 18.4 mph 0.00 in   Overcast
9:53 AM 64.0 °F 45.0 °F 50% 29.44 in 10.0 mi Variable 3.5 mph - 0.00 in Rain Light Rain
10:53 AM 60.1 °F 45.0 °F 57% 29.47 in 10.0 mi SE 16.1 mph 23.0 mph 0.01 in Rain Light Rain
11:53 AM 62.1 °F 42.1 °F 48% 29.45 in 10.0 mi East 12.7 mph 31.1 mph 0.00 in Rain Light Rain
12:53 PM 61.0 °F 44.1 °F 54% 29.45 in 10.0 mi ESE 19.6 mph 39.1 mph 0.00 in   Overcast
1:53 PM 59.0 °F 44.1 °F 58% 29.43 in 10.0 mi ESE 31.1 mph 44.9 mph N/A   Clear
2:53 PM 59.0 °F 44.1 °F 58% 29.46 in 10.0 mi SE 25.3 mph 44.9 mph N/A   Scattered Clouds
3:53 PM 55.9 °F 42.1 °F 60% 29.48 in 10.0 mi SE 27.6 mph 40.3 mph N/A   Clear
4:53 PM 53.1 °F 43.0 °F 69% 29.48 in 10.0 mi SSE 10.4 mph 19.6 mph 0.00 in   Scattered Clouds
5:53 PM 53.1 °F 43.0 °F 69% 29.48 in 10.0 mi SSE 18.4 mph 28.8 mph N/A   Scattered Clouds
6:53 PM 48.9 °F 43.0 °F 80% 29.47 in 10.0 mi South 12.7 mph 23.0 mph 0.00 in   Mostly Cloudy
7:50 PM 50.0 °F 42.8 °F 76% 29.46 in 9.0 mi SSE 15.0 mph 21.9 mph N/A   Partly Cloudy
7:53 PM 50.0 °F 43.0 °F 77% 29.46 in 9.0 mi SSE 13.8 mph 21.9 mph N/A   Clear
8:53 PM 52.0 °F 42.1 °F 69% 29.46 in 10.0 mi ESE 11.5 mph 17.3 mph N/A   Scattered Clouds
9:53 PM 48.0 °F 43.0 °F 83% 29.43 in 10.0 mi Variable 3.5 mph - 0.00 in   Mostly Cloudy
10:53 PM 50.0 °F 44.1 °F 80% 29.43 in 10.0 mi SE 9.2 mph 21.9 mph 0.00 in Rain Light Rain
11:53 PM 50.0 °F 44.1 °F 80% 29.44 in 8.0 mi ESE 8.1 mph - 0.01 in Rain Light Rain